Date,Time,Wetness (Wet Dry or Ice),Wind Speed (m/s),Temperature (C),Humidity (%),Pressure (mb),Radiation (W/m^2)
2019-03-11,00:05:00,DRY,2.95,6.30,28.0,780.00,1.2
2019-03-11,00:10:00,DRY,1.57,6.10,28.7,780.00,1.5
2019-03-11,00:15:00,DRY,0.95,5.55,31.0,780.00,0.8
2019-03-11,00:20:00,DRY,2.07,5.33,32.3,780.00,1.9
2019-03-11,00:25:00,DRY,1.20,5.90,29.0,780.00,1.0
2019-03-11,00:30:00,DRY,1.20,5.87,30.0,780.00,0.8
2019-03-11,00:35:00,DRY,2.25,5.60,31.0,780.00,1.2
2019-03-11,00:40:00,DRY,1.70,5.23,32.0,780.00,1.8
2019-03-11,00:45:00,DRY,1.55,5.25,32.0,780.00,0.6
2019-03-11,00:50:00,DRY,1.50,5.07,32.7,780.00,1.7
2019-03-11,00:55:00,DRY,2.45,5.20,31.5,780.00,1.0
2019-03-11,01:00:00,DRY,0.87,5.43,30.3,780.00,1.9
2019-03-11,01:05:00,DRY,2.05,5.15,31.5,780.00,0.9
2019-03-11,01:10:00,DRY,3.20,5.37,31.3,780.00,1.4
2019-03-11,01:15:00,DRY,1.85,5.30,32.0,780.00,0.6
2019-03-11,01:20:00,DRY,1.07,4.93,33.0,780.00,1.3
2019-03-11,01:25:00,DRY,1.50,5.05,33.5,780.00,1.4
2019-03-11,01:30:00,DRY,2.40,5.47,30.3,780.00,1.2
2019-03-11,01:35:00,DRY,1.65,5.45,30.0,780.00,0.9
2019-03-11,01:40:00,DRY,1.53,5.77,28.3,780.00,0.6
2019-03-11,01:45:00,DRY,2.10,5.65,28.5,780.00,0.8
2019-03-11,01:50:00,DRY,2.13,5.90,27.7,780.00,1.0
2019-03-11,01:55:00,DRY,0.70,5.70,28.0,780.00,0.8
2019-03-11,02:00:00,DRY,2.03,5.73,27.3,780.00,1.1
2019-03-11,02:05:00,DRY,1.55,5.55,28.5,780.00,1.1
2019-03-11,02:10:00,DRY,1.70,5.67,27.7,780.00,0.8
2019-03-11,02:15:00,DRY,2.05,6.20,25.5,780.00,0.9
2019-03-11,02:20:00,DRY,1.43,6.30,25.0,780.00,2.1
2019-03-11,02:25:00,DRY,2.05,6.55,24.5,780.00,2.0
2019-03-11,02:30:00,DRY,1.73,6.23,25.3,780.00,1.1
2019-03-11,02:35:00,DRY,1.00,6.30,25.0,780.00,1.4
2019-03-11,02:40:00,DRY,1.60,6.30,24.3,780.00,1.5
2019-03-11,02:45:00,DRY,2.40,6.10,25.5,780.00,1.6
2019-03-11,02:50:00,DRY,0.87,6.23,23.7,780.00,1.0
2019-03-11,02:55:00,DRY,1.15,6.30,24.0,780.00,1.6
2019-03-11,03:00:00,DRY,0.63,6.33,24.0,780.00,1.6
2019-03-11,03:05:00,DRY,1.80,6.15,24.5,780.00,1.1
2019-03-11,03:10:00,DRY,1.53,6.20,24.3,780.00,0.9
2019-03-11,03:15:00,DRY,2.35,6.05,24.5,780.00,1.7
2019-03-11,03:20:00,DRY,1.30,6.40,24.0,780.00,1.1
2019-03-11,03:25:00,DRY,1.95,5.70,25.5,780.00,0.2
2019-03-11,03:30:00,DRY,1.80,5.57,25.7,779.67,2.0
2019-03-11,03:35:00,DRY,0.65,5.80,24.5,779.00,0.9
2019-03-11,03:40:00,DRY,1.40,5.77,24.3,779.00,2.2
2019-03-11,03:45:00,DRY,2.20,6.10,23.5,779.00,0.9
2019-03-11,03:50:00,DRY,2.17,6.00,24.3,779.00,0.4
2019-03-11,03:55:00,DRY,3.40,6.00,24.5,779.00,1.1
2019-03-11,04:00:00,DRY,2.60,6.37,23.7,779.00,0.2
2019-03-11,04:05:00,DRY,2.60,6.35,23.5,779.00,0.7
2019-03-11,04:10:00,DRY,2.87,6.30,24.0,779.00,1.2
2019-03-11,04:15:00,DRY,2.85,6.30,24.0,779.00,0.8
2019-03-11,04:20:00,DRY,2.83,6.20,24.7,779.00,1.0
2019-03-11,04:25:00,DRY,2.25,6.20,25.0,779.00,1.5
2019-03-11,04:30:00,DRY,3.13,6.17,25.0,779.00,1.0
2019-03-11,04:35:00,DRY,1.75,6.10,25.0,779.00,0.7
2019-03-11,04:40:00,DRY,2.33,6.17,25.0,779.00,1.3
2019-03-11,04:45:00,DRY,2.00,6.15,25.0,779.00,1.9
2019-03-11,04:50:00,DRY,2.63,6.27,24.7,779.00,1.2
2019-03-11,04:55:00,DRY,1.75,6.20,25.0,779.00,0.7
2019-03-11,05:00:00,DRY,1.37,6.20,25.3,779.00,0.9
2019-03-11,05:05:00,DRY,1.70,6.10,25.5,779.00,1.8
2019-03-11,05:10:00,DRY,2.10,6.07,26.0,779.00,1.1
2019-03-11,05:15:00,DRY,2.25,6.05,26.0,779.00,1.4
2019-03-11,05:20:00,DRY,1.33,6.23,25.7,779.00,1.2
2019-03-11,05:25:00,DRY,1.45,6.25,25.0,779.00,0.7
2019-03-11,05:30:00,DRY,1.50,6.30,25.0,779.00,0.3
2019-03-11,05:35:00,DRY,2.55,6.25,25.0,779.00,1.2
2019-03-11,05:40:00,DRY,1.90,6.37,25.0,779.00,1.1
2019-03-11,05:45:00,DRY,1.30,6.40,25.0,779.00,1.6
2019-03-11,05:50:00,DRY,2.43,6.33,24.7,779.00,1.8
2019-03-11,05:55:00,DRY,2.10,6.25,25.0,779.00,0.8
2019-03-11,06:00:00,DRY,1.83,6.30,25.0,779.00,0.9
2019-03-11,06:05:00,DRY,1.50,6.25,25.5,779.00,0.6
2019-03-11,06:10:00,DRY,1.90,6.13,26.0,779.33,0.5
2019-03-11,06:15:00,DRY,2.15,6.05,26.0,779.00,1.6
2019-03-11,06:20:00,DRY,2.63,6.13,26.0,779.00,0.9
2019-03-11,06:25:00,DRY,2.15,6.10,26.0,779.00,1.0
2019-03-11,06:30:00,DRY,1.90,6.13,25.7,779.33,0.7
2019-03-11,06:35:00,DRY,2.00,6.00,26.0,779.00,1.9
2019-03-11,06:40:00,DRY,2.60,5.87,26.0,780.00,1.1
2019-03-11,06:45:00,DRY,2.15,5.90,26.0,780.00,1.4
2019-03-11,06:50:00,DRY,2.50,5.77,26.0,780.00,1.7
2019-03-11,06:55:00,DRY,2.35,5.80,26.0,780.00,1.4
2019-03-11,07:00:00,DRY,1.90,5.83,26.0,780.00,1.3
2019-03-11,07:05:00,DRY,1.60,6.15,25.0,780.00,1.6
2019-03-11,07:10:00,DRY,1.70,5.90,26.0,780.00,2.4
2019-03-11,07:15:00,DRY,1.25,6.10,25.5,780.00,2.4
2019-03-11,07:20:00,DRY,1.83,6.07,25.7,780.00,3.7
2019-03-11,07:25:00,DRY,1.95,5.90,26.0,780.00,6.8
2019-03-11,07:30:00,DRY,2.00,5.90,26.0,780.00,9.4
2019-03-11,07:35:00,DRY,2.15,5.70,27.0,780.00,11.8
2019-03-11,07:40:00,DRY,1.63,6.00,26.0,780.00,15.6
2019-03-11,07:45:00,DRY,1.70,5.70,26.5,780.00,19.0
2019-03-11,07:50:00,DRY,1.53,5.80,26.3,780.00,22.2
2019-03-11,07:55:00,DRY,1.50,5.90,26.5,780.00,23.2
2019-03-11,08:00:00,DRY,1.73,5.07,28.0,780.00,27.3
2019-03-11,08:05:00,DRY,1.60,5.15,28.5,780.00,126.7
2019-03-11,08:10:00,DRY,1.40,6.03,26.3,780.00,160.9
2019-03-11,08:15:00,DRY,1.05,6.50,25.0,780.00,104.9
2019-03-11,08:20:00,DRY,0.97,6.20,25.3,780.00,145.5
2019-03-11,08:25:00,DRY,0.55,6.25,25.5,780.00,215.2
2019-03-11,08:30:00,DRY,1.17,6.47,24.3,780.00,254.2
2019-03-11,08:35:00,DRY,0.70,6.80,23.5,780.00,282.9
2019-03-11,08:40:00,DRY,0.80,7.30,23.0,780.00,305.3
2019-03-11,08:45:00,DRY,0.85,7.05,23.0,780.00,327.7
2019-03-11,08:50:00,DRY,0.33,7.53,22.3,780.00,350.9
2019-03-11,08:55:00,DRY,0.55,8.05,22.0,780.00,373.2
2019-03-11,09:00:00,DRY,0.53,7.97,22.0,780.00,396.4
2019-03-11,09:05:00,DRY,0.70,8.15,21.5,780.00,415.4
2019-03-11,09:10:00,DRY,0.30,8.37,22.0,780.00,436.5
2019-03-11,09:15:00,DRY,0.80,8.85,21.0,780.00,458.1
2019-03-11,09:20:00,DRY,0.73,8.57,21.0,780.00,477.0
2019-03-11,09:25:00,DRY,0.45,8.35,22.0,780.00,497.2
2019-03-11,09:30:00,DRY,0.63,8.83,22.0,780.00,517.9
2019-03-11,09:35:00,DRY,1.00,8.55,22.5,780.00,538.1
2019-03-11,09:40:00,DRY,0.97,8.40,22.7,780.00,556.3
2019-03-11,09:45:00,DRY,1.20,7.95,24.0,780.00,575.3
2019-03-11,09:50:00,DRY,1.00,8.15,25.5,780.00,595.3
2019-03-11,09:55:00,DRY,1.00,8.15,24.5,780.00,613.0
2019-03-11,10:00:00,DRY,1.10,8.17,25.3,780.00,630.3
2019-03-11,10:05:00,DRY,1.25,8.40,25.5,780.00,649.2
2019-03-11,10:10:00,DRY,1.47,8.57,24.7,780.00,666.4
2019-03-11,10:15:00,DRY,0.95,13.45,20.5,780.00,681.1
2019-03-11,10:20:00,DRY,0.70,10.63,23.3,780.00,699.3
2019-03-11,10:25:00,DRY,1.40,8.90,28.0,780.00,716.2
2019-03-11,10:30:00,DRY,1.03,8.70,26.0,780.00,732.1
2019-03-11,10:35:00,DRY,0.90,9.00,25.0,780.50,750.1
2019-03-11,10:40:00,DRY,1.30,9.37,25.7,780.33,763.5
2019-03-11,10:45:00,DRY,1.05,9.20,24.0,780.00,779.0
2019-03-11,10:50:00,DRY,0.90,9.33,27.0,780.00,791.2
2019-03-11,10:55:00,DRY,1.05,9.45,28.0,780.50,804.6
2019-03-11,11:00:00,DRY,1.87,9.60,27.3,781.00,818.3
2019-03-11,11:05:00,DRY,0.60,9.60,27.0,781.00,834.5
2019-03-11,11:10:00,DRY,1.07,9.93,26.3,781.00,843.1
2019-03-11,11:15:00,DRY,1.15,9.90,28.0,781.00,856.2
2019-03-11,11:20:00,DRY,1.50,9.43,28.3,781.00,865.8
2019-03-11,11:25:00,DRY,1.05,9.20,28.0,781.00,878.5
2019-03-11,11:30:00,DRY,1.23,9.27,27.0,781.00,888.4
2019-03-11,11:35:00,DRY,2.30,9.45,27.5,781.00,896.2
2019-03-11,11:40:00,DRY,2.23,9.57,28.7,781.00,907.6
2019-03-11,11:45:00,DRY,1.90,9.80,27.5,781.00,913.1
2019-03-11,11:50:00,DRY,1.90,9.50,27.0,781.00,925.3
2019-03-11,11:55:00,DRY,1.50,9.30,28.5,781.00,934.0
2019-03-11,12:00:00,DRY,2.13,9.43,28.3,781.00,937.4
2019-03-11,12:05:00,DRY,1.85,9.65,27.0,781.00,948.2
2019-03-11,12:10:00,DRY,2.07,9.80,26.3,781.00,953.8
2019-03-11,12:15:00,DRY,2.35,9.45,28.0,781.00,961.8
2019-03-11,12:20:00,DRY,1.60,9.70,27.5,781.00,970.0
2019-03-11,12:25:00,DRY,2.45,9.85,27.0,781.00,969.2
2019-03-11,12:30:00,DRY,1.83,9.43,27.3,781.00,974.4
2019-03-11,12:35:00,DRY,2.75,9.65,27.0,780.00,982.6
2019-03-11,12:40:00,DRY,1.83,9.27,27.7,781.00,985.0
2019-03-11,12:45:00,DRY,1.80,9.75,27.5,780.00,990.0
2019-03-11,12:50:00,DRY,2.13,10.00,26.0,780.00,994.6
2019-03-11,12:55:00,DRY,1.95,9.70,27.5,780.00,997.5
2019-03-11,13:00:00,DRY,1.67,10.07,26.3,780.00,996.3
2019-03-11,13:05:00,DRY,2.70,9.90,27.5,780.00,997.1
2019-03-11,13:10:00,DRY,2.20,10.10,27.7,780.00,1000.4
2019-03-11,13:15:00,DRY,1.65,10.55,25.0,780.00,998.6
2019-03-11,13:20:00,DRY,0.80,10.23,25.3,780.00,998.0
2019-03-11,13:25:00,DRY,2.65,10.75,27.5,780.00,999.9
2019-03-11,13:30:00,DRY,1.60,10.70,25.0,780.00,1001.0
2019-03-11,13:35:00,DRY,1.90,10.00,28.0,780.00,998.7
2019-03-11,13:40:00,DRY,1.47,10.90,26.3,780.00,997.7
2019-03-11,13:45:00,DRY,1.80,10.10,28.0,780.00,994.2
2019-03-11,13:50:00,DRY,1.73,9.70,28.0,780.00,992.6
2019-03-11,13:55:00,DRY,2.45,10.20,26.0,780.00,985.2
2019-03-11,14:00:00,DRY,1.90,10.17,27.7,780.00,984.6
2019-03-11,14:05:00,DRY,1.05,10.10,28.0,780.00,978.5
2019-03-11,14:10:00,DRY,1.43,10.37,27.3,780.00,976.6
2019-03-11,14:15:00,DRY,2.75,10.85,27.5,780.00,971.8
2019-03-11,14:20:00,DRY,1.70,10.57,26.3,780.00,966.0
2019-03-11,14:25:00,DRY,2.70,10.50,26.0,780.00,960.3
2019-03-11,14:30:00,DRY,2.93,10.83,26.0,780.00,953.5
2019-03-11,14:35:00,DRY,1.85,10.30,27.5,780.00,943.2
2019-03-11,14:40:00,DRY,1.57,10.43,26.3,780.00,937.8
2019-03-11,14:45:00,DRY,1.45,10.95,25.0,780.00,931.7
2019-03-11,14:50:00,DRY,1.30,10.90,27.0,780.00,921.4
2019-03-11,14:55:00,DRY,2.15,10.35,28.5,780.00,910.0
2019-03-11,15:00:00,DRY,1.57,10.00,28.7,780.00,902.3
2019-03-11,15:05:00,DRY,2.30,10.30,29.5,780.00,892.5
2019-03-11,15:10:00,DRY,1.30,10.20,28.3,780.00,881.4
2019-03-11,15:15:00,DRY,2.65,10.90,28.0,780.00,871.5
2019-03-11,15:20:00,DRY,0.97,10.10,28.3,780.00,857.4
2019-03-11,15:25:00,DRY,1.40,10.60,28.0,780.00,844.4
2019-03-11,15:30:00,DRY,2.43,10.37,27.3,780.00,833.9
2019-03-11,15:35:00,DRY,1.35,10.65,28.0,780.00,819.5
2019-03-11,15:40:00,DRY,1.37,10.57,28.0,780.00,807.2
2019-03-11,15:45:00,DRY,1.20,10.50,28.5,780.00,794.8
2019-03-11,15:50:00,DRY,1.80,10.20,28.3,780.00,778.9
2019-03-11,15:55:00,DRY,2.70,9.75,28.5,780.00,766.2
2019-03-11,16:00:00,DRY,1.60,10.03,28.0,780.00,750.2
2019-03-11,16:05:00,DRY,1.85,9.80,28.5,780.00,734.2
2019-03-11,16:10:00,DRY,1.57,10.00,28.0,780.00,717.7
2019-03-11,16:15:00,DRY,1.75,9.40,28.5,780.00,704.1
2019-03-11,16:20:00,DRY,1.37,9.20,28.3,780.00,686.3
2019-03-11,16:25:00,DRY,1.70,9.20,29.5,780.00,670.2
2019-03-11,16:30:00,DRY,1.73,9.07,29.0,780.00,652.8
2019-03-11,16:35:00,DRY,2.15,9.05,28.0,780.00,637.2
2019-03-11,16:40:00,DRY,1.67,9.00,29.0,780.00,618.9
2019-03-11,16:45:00,DRY,1.55,9.15,29.5,780.00,601.4
2019-03-11,16:50:00,DRY,1.80,9.00,29.7,780.00,579.7
2019-03-11,16:55:00,DRY,1.40,8.75,29.0,780.00,562.5
2019-03-11,17:00:00,DRY,2.13,8.43,29.7,780.00,542.3
2019-03-11,17:05:00,DRY,1.30,8.30,30.0,780.00,521.2
2019-03-11,17:10:00,DRY,1.43,8.43,30.0,780.00,501.3
2019-03-11,17:15:00,DRY,1.90,8.35,28.5,780.00,483.0
2019-03-11,17:20:00,DRY,1.90,8.47,28.0,780.00,461.2
2019-03-11,17:25:00,DRY,1.20,8.35,28.5,780.00,440.1
2019-03-11,17:30:00,DRY,1.33,8.13,28.7,780.00,420.0
2019-03-11,17:35:00,DRY,1.80,8.00,28.0,780.00,399.2
2019-03-11,17:40:00,DRY,1.43,7.77,28.0,780.00,378.5
2019-03-11,17:45:00,DRY,1.50,7.60,27.0,780.00,357.7
2019-03-11,17:50:00,DRY,1.20,7.57,27.3,780.00,335.5
2019-03-11,17:55:00,DRY,0.90,7.45,28.0,780.00,314.0
2019-03-11,18:00:00,DRY,0.87,7.57,27.3,780.00,292.5
2019-03-11,18:05:00,DRY,0.75,7.50,27.5,780.00,270.0
2019-03-11,18:10:00,DRY,1.40,7.33,27.3,780.00,248.5
2019-03-11,18:15:00,DRY,0.60,7.30,27.0,780.00,228.1
2019-03-11,18:20:00,DRY,1.17,7.47,27.0,780.00,206.4
2019-03-11,18:25:00,DRY,1.05,7.25,27.5,780.00,186.9
2019-03-11,18:30:00,DRY,1.03,7.17,27.3,780.00,166.4
2019-03-11,18:35:00,DRY,0.90,7.20,27.0,780.00,109.1
2019-03-11,18:40:00,DRY,0.87,7.13,30.7,780.00,31.1
2019-03-11,18:45:00,DRY,0.95,7.40,32.0,780.00,26.9
2019-03-11,18:50:00,DRY,1.07,7.27,32.3,780.00,24.0
2019-03-11,18:55:00,DRY,0.80,7.40,32.5,780.00,21.6
2019-03-11,19:00:00,DRY,1.07,6.80,27.7,780.00,19.1
2019-03-11,19:05:00,DRY,0.80,6.40,28.0,780.00,15.7
2019-03-11,19:10:00,DRY,1.00,7.03,30.0,780.00,11.8
2019-03-11,19:15:00,DRY,0.90,7.15,27.5,780.00,9.6
2019-03-11,19:20:00,DRY,0.97,6.70,28.7,780.00,6.3
2019-03-11,19:25:00,DRY,0.80,6.60,28.5,780.00,3.6
2019-03-11,19:30:00,DRY,0.77,6.63,28.3,780.00,3.0
2019-03-11,19:35:00,DRY,0.70,6.60,27.5,780.00,1.3
2019-03-11,19:40:00,DRY,0.67,6.50,27.3,780.00,0.5
2019-03-11,19:45:00,DRY,0.60,6.50,26.5,780.00,1.7
2019-03-11,19:50:00,DRY,0.83,6.93,23.0,780.00,1.1
2019-03-11,19:55:00,DRY,0.65,7.55,15.0,780.00,0.8
2019-03-11,20:00:00,DRY,0.43,8.17,10.7,780.00,2.1
2019-03-11,20:05:00,DRY,0.25,8.25,11.5,780.00,1.8
2019-03-11,20:10:00,DRY,0.40,8.37,10.0,780.00,1.0
2019-03-11,20:15:00,DRY,0.70,8.55,10.0,780.00,1.3
2019-03-11,20:20:00,DRY,0.30,8.37,10.7,780.33,1.2
2019-03-11,20:25:00,DRY,0.10,7.90,12.0,781.00,1.1
2019-03-11,20:30:00,DRY,0.40,7.90,11.3,781.00,0.5
2019-03-11,20:35:00,DRY,0.35,8.35,11.0,781.00,2.0
2019-03-11,20:40:00,DRY,0.60,7.60,20.3,781.00,0.6
2019-03-11,20:45:00,DRY,0.85,7.20,24.5,781.00,1.6
2019-03-11,20:50:00,DRY,0.37,7.17,26.3,781.00,1.4
2019-03-11,20:55:00,DRY,0.45,6.85,27.0,781.00,0.9
2019-03-11,21:00:00,DRY,1.33,7.17,26.3,781.00,1.6
2019-03-11,21:05:00,DRY,1.25,7.35,24.0,781.00,2.0
2019-03-11,21:10:00,DRY,1.27,7.33,23.7,781.00,1.3
2019-03-11,21:15:00,DRY,0.85,7.20,23.5,781.00,1.2
2019-03-11,21:20:00,DRY,1.30,7.27,21.0,781.00,1.4
2019-03-11,21:25:00,DRY,0.90,7.40,18.0,781.00,1.3
2019-03-11,21:30:00,DRY,0.90,7.17,16.3,781.00,1.3
2019-03-11,21:35:00,DRY,1.20,7.25,14.0,781.00,2.2
2019-03-11,21:40:00,DRY,1.10,7.30,13.7,781.00,2.1
2019-03-11,21:45:00,DRY,1.60,7.15,14.0,781.00,0.7
2019-03-11,21:50:00,DRY,1.47,7.13,13.7,781.00,1.2
2019-03-11,21:55:00,DRY,1.35,7.20,13.0,781.00,1.0
2019-03-11,22:00:00,DRY,1.27,7.07,12.3,781.00,1.4
2019-03-11,22:05:00,DRY,1.15,7.35,12.0,781.00,1.9
2019-03-11,22:10:00,DRY,1.57,7.67,12.0,781.00,1.2
2019-03-11,22:15:00,DRY,1.75,7.95,13.0,781.00,1.0
2019-03-11,22:20:00,DRY,2.40,8.43,13.0,781.00,1.5
2019-03-11,22:25:00,DRY,2.40,8.60,13.0,781.00,0.3
2019-03-11,22:30:00,DRY,2.67,8.43,13.7,781.00,0.9
2019-03-11,22:35:00,DRY,2.75,8.50,14.0,781.00,1.2
2019-03-11,22:40:00,DRY,2.17,8.30,14.0,781.00,1.4
2019-03-11,22:45:00,DRY,2.10,8.60,13.0,781.00,1.2
2019-03-11,22:50:00,DRY,2.50,8.40,12.7,781.00,1.1
2019-03-11,22:55:00,DRY,2.50,8.30,13.0,781.00,0.8
2019-03-11,23:00:00,DRY,2.23,8.33,13.0,781.00,1.2
2019-03-11,23:05:00,DRY,2.20,8.25,13.0,781.00,0.8
2019-03-11,23:10:00,DRY,2.03,8.37,13.3,781.00,0.7
2019-03-11,23:15:00,DRY,2.30,8.15,14.0,781.00,0.9
2019-03-11,23:20:00,DRY,2.47,8.10,14.0,781.00,0.9
2019-03-11,23:25:00,DRY,2.60,8.25,14.0,781.00,0.6
2019-03-11,23:30:00,DRY,2.77,8.27,14.3,781.00,1.8
2019-03-11,23:35:00,DRY,3.25,8.20,14.0,781.00,0.9
2019-03-11,23:40:00,DRY,2.90,8.07,14.0,781.00,1.5
2019-03-11,23:45:00,DRY,3.30,8.05,10.5,781.00,2.3
2019-03-11,23:50:00,DRY,3.03,8.33,9.0,781.00,1.0
2019-03-11,23:55:00,DRY,2.90,8.35,8.0,781.00,1.5
2019-03-12,00:00:00,DRY,3.10,8.30,7.7,781.00,1.5
2019-03-12,00:05:00,DRY,3.20,8.40,7.5,781.00,1.0
2019-03-12,00:10:00,DRY,2.80,8.47,7.0,781.00,1.7
2019-03-12,00:15:00,DRY,2.75,8.55,8.0,781.00,0.9
2019-03-12,00:20:00,DRY,3.27,8.87,8.7,781.00,1.1
2019-03-12,00:25:00,DRY,2.80,8.90,9.0,781.00,0.5
2019-03-12,00:30:00,DRY,3.07,8.90,8.7,781.00,0.9
2019-03-12,00:35:00,DRY,3.25,8.85,8.0,781.00,0.9
2019-03-12,00:40:00,DRY,2.90,8.60,7.7,781.00,0.8
2019-03-12,00:45:00,DRY,2.70,8.75,7.5,781.00,1.7
2019-03-12,00:50:00,DRY,2.50,8.87,9.0,781.00,1.5
2019-03-12,00:55:00,DRY,3.10,8.85,9.5,781.00,0.8
2019-03-12,01:00:00,DRY,3.13,8.80,10.3,781.00,1.1
2019-03-12,01:05:00,DRY,2.80,8.75,11.0,781.00,1.4
2019-03-12,01:10:00,DRY,2.67,8.80,12.3,781.00,0.8
2019-03-12,01:15:00,DRY,2.35,8.95,12.5,781.00,1.5
2019-03-12,01:20:00,DRY,2.60,9.07,12.7,781.00,1.8
2019-03-12,01:25:00,DRY,2.80,8.80,15.0,781.00,1.6
2019-03-12,01:30:00,DRY,3.17,8.93,17.0,781.00,1.2
2019-03-12,01:35:00,DRY,3.40,8.90,18.0,781.00,1.5
2019-03-12,01:40:00,DRY,3.43,9.13,15.7,780.67,0.8
2019-03-12,01:45:00,DRY,2.90,9.10,13.5,781.00,0.6
2019-03-12,01:50:00,DRY,2.80,9.20,10.3,780.67,0.8
2019-03-12,01:55:00,DRY,3.85,9.20,11.0,780.00,1.0
2019-03-12,02:00:00,DRY,3.63,9.17,11.7,780.00,1.4
2019-03-12,02:05:00,DRY,2.95,9.15,10.5,780.00,1.2
2019-03-12,02:10:00,DRY,2.67,9.47,10.7,780.00,0.8
2019-03-12,02:15:00,DRY,4.10,9.45,7.5,780.00,0.6
2019-03-12,02:20:00,DRY,3.57,9.33,6.0,780.00,0.7
2019-03-12,02:25:00,DRY,3.60,9.40,6.0,780.00,1.6
2019-03-12,02:30:00,DRY,3.50,9.43,6.0,780.00,0.9
2019-03-12,02:35:00,DRY,3.00,9.50,6.5,780.00,1.1
2019-03-12,02:40:00,DRY,2.47,9.53,5.3,780.00,1.0
2019-03-12,02:45:00,DRY,2.95,9.55,6.0,780.00,1.5
2019-03-12,02:50:00,DRY,3.70,9.50,6.0,780.00,1.0
2019-03-12,02:55:00,DRY,3.65,9.55,6.5,780.00,1.1
2019-03-12,03:00:00,DRY,3.43,9.43,6.7,780.00,0.7
2019-03-12,03:05:00,DRY,3.30,9.40,7.0,780.00,1.6
2019-03-12,03:10:00,DRY,3.67,9.70,7.0,780.00,1.0
2019-03-12,03:15:00,DRY,3.80,9.85,6.0,780.00,1.6
2019-03-12,03:20:00,DRY,2.13,10.10,6.0,780.00,1.7
2019-03-12,03:25:00,DRY,2.00,10.15,5.0,780.00,1.1
2019-03-12,03:30:00,DRY,1.60,10.33,5.3,780.00,1.4
2019-03-12,03:35:00,DRY,2.00,10.25,6.0,780.00,1.0
2019-03-12,03:40:00,DRY,1.83,10.33,4.7,780.00,1.6
2019-03-12,03:45:00,DRY,2.60,10.65,4.5,780.00,1.6
2019-03-12,03:50:00,DRY,1.70,10.33,4.7,780.00,1.6
2019-03-12,03:55:00,DRY,1.30,10.00,5.0,780.00,2.6
2019-03-12,04:00:00,DRY,0.53,9.07,6.0,779.33,1.3
2019-03-12,04:05:00,DRY,1.15,9.30,5.5,780.00,1.7
2019-03-12,04:10:00,DRY,1.30,9.67,5.7,780.00,1.9
2019-03-12,04:15:00,DRY,1.40,9.60,5.0,780.00,1.9
2019-03-12,04:20:00,DRY,1.53,9.80,5.0,779.33,1.0
2019-03-12,04:25:00,DRY,1.90,10.20,4.0,779.00,2.0
2019-03-12,04:30:00,DRY,2.30,10.73,3.3,779.00,1.7
2019-03-12,04:35:00,DRY,1.25,10.70,3.5,779.00,0.6
2019-03-12,04:40:00,DRY,1.33,10.20,4.0,779.00,0.9
2019-03-12,04:45:00,DRY,1.75,10.55,3.5,779.00,1.0
2019-03-12,04:50:00,DRY,2.17,10.73,3.3,779.00,0.8
2019-03-12,04:55:00,DRY,2.95,11.10,3.0,779.00,0.9
2019-03-12,05:00:00,DRY,2.67,11.20,3.0,779.00,1.6
2019-03-12,05:05:00,DRY,2.05,11.30,3.0,779.00,0.6
2019-03-12,05:10:00,DRY,1.07,10.67,3.7,779.00,1.1
2019-03-12,05:15:00,DRY,2.05,10.40,3.0,779.00,1.1
2019-03-12,05:20:00,DRY,1.80,10.17,4.0,779.00,1.5
2019-03-12,05:25:00,DRY,2.00,10.50,3.0,779.00,1.9
2019-03-12,05:30:00,DRY,2.07,10.77,3.0,779.00,1.0
2019-03-12,05:35:00,DRY,2.05,10.85,3.0,779.00,0.5
2019-03-12,05:40:00,DRY,1.70,10.53,3.0,779.00,0.6
2019-03-12,05:45:00,DRY,1.40,10.50,3.0,779.00,1.6
2019-03-12,05:50:00,DRY,2.27,10.57,3.0,779.00,0.8
2019-03-12,05:55:00,DRY,1.20,10.60,3.0,779.00,1.8
2019-03-12,06:00:00,DRY,1.37,10.60,3.0,779.00,2.5
2019-03-12,06:05:00,DRY,3.40,10.70,3.0,779.00,1.2
2019-03-12,06:10:00,DRY,2.23,10.83,3.0,779.00,0.5
2019-03-12,06:15:00,DRY,3.55,10.65,3.0,779.00,1.5
2019-03-12,06:20:00,DRY,2.97,10.63,3.0,779.00,1.6
2019-03-12,06:25:00,DRY,2.70,10.60,3.0,779.00,1.1
2019-03-12,06:30:00,DRY,2.73,10.67,2.7,779.00,1.6
2019-03-12,06:35:00,DRY,2.55,10.90,2.5,779.00,2.8
2019-03-12,06:40:00,DRY,2.23,10.63,2.7,779.00,1.4
2019-03-12,06:45:00,DRY,2.30,10.50,3.0,779.00,1.7
2019-03-12,06:50:00,DRY,2.07,10.27,3.0,779.00,0.9
2019-03-12,06:55:00,DRY,1.60,10.30,3.0,779.00,1.5
2019-03-12,07:00:00,DRY,0.83,10.27,3.0,779.00,1.1
2019-03-12,07:05:00,DRY,0.85,10.10,3.0,779.00,2.7
2019-03-12,07:10:00,DRY,0.83,10.30,3.0,779.00,2.8
2019-03-12,07:15:00,DRY,1.05,10.30,3.0,779.50,2.9
2019-03-12,07:20:00,DRY,1.13,9.93,3.0,779.67,4.8
2019-03-12,07:25:00,DRY,0.75,10.05,3.0,780.00,6.8
2019-03-12,07:30:00,DRY,0.83,10.03,3.3,780.00,9.1
2019-03-12,07:35:00,DRY,1.40,9.85,3.5,780.00,12.4
2019-03-12,07:40:00,DRY,1.33,9.87,3.7,780.00,14.4
2019-03-12,07:45:00,DRY,1.55,9.60,4.0,780.00,15.8
2019-03-12,07:50:00,DRY,1.93,9.57,4.7,780.00,17.7
2019-03-12,07:55:00,DRY,1.90,9.55,5.0,780.00,18.8
2019-03-12,08:00:00,DRY,1.80,9.77,4.0,780.00,78.3
2019-03-12,08:05:00,DRY,2.10,9.90,4.0,780.00,165.9
2019-03-12,08:10:00,DRY,2.77,10.00,4.0,780.00,189.2
2019-03-12,08:15:00,DRY,2.80,10.15,4.5,780.00,210.1
2019-03-12,08:20:00,DRY,2.53,10.27,4.0,780.00,232.2
2019-03-12,08:25:00,DRY,3.40,10.50,4.0,780.00,254.1
2019-03-12,08:30:00,DRY,2.63,10.53,4.0,780.00,276.8
2019-03-12,08:35:00,DRY,2.85,10.40,4.5,780.00,299.2
2019-03-12,08:40:00,DRY,1.73,10.17,5.0,780.00,320.9
2019-03-12,08:45:00,DRY,1.20,10.40,5.0,780.00,343.0
2019-03-12,08:50:00,DRY,0.67,10.73,4.7,780.00,365.4
2019-03-12,08:55:00,DRY,0.55,11.30,4.0,780.00,386.4
2019-03-12,09:00:00,DRY,1.07,11.27,5.0,780.00,408.1
2019-03-12,09:05:00,DRY,0.80,11.35,4.5,780.00,430.0
2019-03-12,09:10:00,DRY,0.87,11.10,5.0,780.00,450.5
2019-03-12,09:15:00,DRY,1.30,11.00,5.5,780.00,471.9
2019-03-12,09:20:00,DRY,1.07,10.70,7.3,780.00,491.8
2019-03-12,09:25:00,DRY,0.40,11.05,7.0,780.00,512.2
2019-03-12,09:30:00,DRY,0.67,11.30,6.7,780.00,532.3
2019-03-12,09:35:00,DRY,0.45,11.40,7.0,780.00,552.8
2019-03-12,09:40:00,DRY,0.83,11.73,6.7,780.00,571.8
2019-03-12,09:45:00,DRY,0.80,11.65,7.5,780.00,590.9
2019-03-12,09:50:00,DRY,0.90,11.73,7.0,780.00,609.6
2019-03-12,09:55:00,DRY,1.30,11.70,7.5,780.00,628.5
2019-03-12,10:00:00,DRY,2.53,11.13,7.7,780.00,644.8
2019-03-12,10:05:00,DRY,3.00,10.80,10.0,780.00,661.6
2019-03-12,10:10:00,DRY,2.43,10.63,9.0,780.00,678.1
2019-03-12,10:15:00,DRY,1.70,10.65,10.5,780.00,695.3
2019-03-12,10:20:00,DRY,2.63,10.77,9.7,780.00,712.3
2019-03-12,10:25:00,DRY,2.60,10.40,9.5,780.00,728.5
2019-03-12,10:30:00,DRY,2.17,10.47,11.0,780.33,742.3
2019-03-12,10:35:00,DRY,2.60,10.65,11.5,780.50,758.7
2019-03-12,10:40:00,DRY,1.97,10.73,12.0,780.67,772.9
2019-03-12,10:45:00,DRY,2.55,10.75,11.0,781.00,788.4
2019-03-12,10:50:00,DRY,2.20,10.60,11.3,780.67,801.2
2019-03-12,10:55:00,DRY,3.65,10.35,12.5,780.50,815.5
2019-03-12,11:00:00,DRY,2.60,10.50,12.3,780.67,828.8
2019-03-12,11:05:00,DRY,1.15,10.85,13.5,781.00,840.2
2019-03-12,11:10:00,DRY,3.37,11.03,12.0,781.00,852.4
2019-03-12,11:15:00,DRY,3.65,10.70,12.5,781.00,865.5
2019-03-12,11:20:00,DRY,3.47,10.37,13.0,781.00,876.7
2019-03-12,11:25:00,DRY,2.55,10.65,14.0,781.00,886.9
2019-03-12,11:30:00,DRY,2.30,11.10,14.7,781.00,898.1
2019-03-12,11:35:00,DRY,3.20,11.35,15.0,781.00,908.4
2019-03-12,11:40:00,DRY,2.07,10.70,14.7,781.00,918.1
2019-03-12,11:45:00,DRY,2.70,10.30,15.5,781.00,926.0
2019-03-12,11:50:00,DRY,2.67,10.80,16.3,781.00,935.5
2019-03-12,11:55:00,DRY,2.25,10.70,17.0,781.00,943.5
2019-03-12,12:00:00,DRY,2.30,11.00,17.0,781.00,951.9
2019-03-12,12:05:00,DRY,2.10,11.00,15.5,781.00,959.5
2019-03-12,12:10:00,DRY,1.07,11.17,17.0,781.00,965.7
2019-03-12,12:15:00,DRY,1.60,11.35,19.0,781.00,971.5
2019-03-12,12:20:00,DRY,1.57,11.20,19.3,781.00,979.8
2019-03-12,12:25:00,DRY,1.85,11.00,20.0,781.00,984.8
2019-03-12,12:30:00,DRY,2.13,10.90,20.7,780.67,988.8
2019-03-12,12:35:00,DRY,2.90,11.15,21.5,780.00,994.5
2019-03-12,12:40:00,DRY,1.87,10.90,23.7,780.67,997.4
2019-03-12,12:45:00,DRY,2.15,11.05,25.5,780.00,997.8
2019-03-12,12:50:00,DRY,2.07,10.80,26.0,780.00,1005.9
2019-03-12,12:55:00,DRY,1.75,11.25,24.0,780.00,1007.4
2019-03-12,13:00:00,DRY,1.93,11.30,28.0,780.33,1006.9
2019-03-12,13:05:00,DRY,1.55,10.90,27.5,780.00,1008.7
2019-03-12,13:10:00,DRY,2.67,10.80,29.7,780.00,1008.5
2019-03-12,13:15:00,DRY,3.00,10.45,33.0,780.00,1008.4
2019-03-12,13:20:00,DRY,1.77,11.17,33.3,780.00,1009.2
2019-03-12,13:25:00,DRY,0.90,10.90,33.0,780.00,1007.5
2019-03-12,13:30:00,DRY,1.70,11.00,35.0,780.00,1009.7
2019-03-12,13:35:00,DRY,1.10,10.60,39.0,780.00,1009.0
2019-03-12,13:40:00,DRY,1.60,10.70,36.3,780.00,1006.7
2019-03-12,13:45:00,DRY,1.70,11.10,38.0,780.00,1002.1
2019-03-12,13:50:00,DRY,2.07,10.80,40.0,780.00,1000.4
2019-03-12,13:55:00,DRY,1.85,10.90,42.0,780.00,995.2
2019-03-12,14:00:00,DRY,2.00,10.95,42.0,780.00,992.4
2019-03-12,14:05:00,DRY,1.65,11.20,40.0,780.00,984.8
2019-03-12,14:10:00,DRY,1.20,11.50,40.3,780.00,980.8
2019-03-12,14:15:00,DRY,1.60,11.15,44.5,780.00,976.8
2019-03-12,14:20:00,DRY,1.77,11.23,45.3,780.00,970.3
2019-03-12,14:25:00,DRY,1.20,11.05,43.0,780.00,961.7
2019-03-12,14:30:00,DRY,0.73,11.27,46.0,780.00,959.7
2019-03-12,14:35:00,DRY,1.55,10.80,50.0,780.00,951.9
2019-03-12,14:40:00,DRY,3.20,10.77,49.0,780.00,944.2
2019-03-12,14:45:00,DRY,1.40,11.20,49.5,780.00,937.4
2019-03-12,14:50:00,DRY,2.17,10.63,51.3,780.00,923.7
2019-03-12,14:55:00,DRY,1.50,10.75,51.5,780.00,915.2